Regional Weather Roundup
Issued by NWS Newport/Morehead, NC

Current Version | Previous Version | Text Only | Print | Product List | Glossary On
Versions: 1 2 3 4 5 6 7 8 9 10 11 12 13 14 15 16 17 18 19 20 21 22 23 24 25 26 27 28 29 30 31 32 33 34 35 36 37 38 39 40 41 42 43 44 45 46 47 48 49 50
000 ASUS42 KMHX 280513 RWRMHX WEATHER ROUNDUP FOR EASTERN NORTH CAROLINA NATIONAL WEATHER SERVICE NEWPORT/MOREHEAD CITY NC 100 AM EDT MON MAY 28 2018 NOTE: "FAIR" INDICATES FEW OR NO CLOUDS BELOW 12,000 FEET WITH NO SIGNIFICANT WEATHER AND/OR OBSTRUCTIONS TO VISIBILITY NCZ015>017-031-032-045>047-102-103-280600- NORTH COAST CITY SKY/WX TMP DP RH WIND PRES REMARKS EDENTON NOT AVBL ELIZABETH CITY FAIR 76 73 91 S7 30.04F KITTY HAWK FAIR 75 71 87 CALM 30.05S MANTEO FAIR 76 72 87 SW9 30.06F $$ NCZ045>047-081-094-103-104-280600- CENTRAL COAST CITY SKY/WX TMP DP RH WIND PRES REMARKS FRISCO FAIR 76 74 93 S6 30.07S $$ NCZ095-097-098-100-101-280600- SOUTHERN COAST CITY SKY/WX TMP DP RH WIND PRES REMARKS BEAUFORT FAIR 76 74 93 S7 30.05F CEDAR ISLAND NOT AVBL JACKSONVILLE FAIR 76 74 93 SE5 30.03S PINEY ISLAND NOT AVBL WILMINGTON FAIR 72 70 93 NE5 30.02F $$ NCZ011>013-027>030-043-044-078>080-089-090>093-098-280600- COASTAL PLAIN CITY SKY/WX TMP DP RH WIND PRES REMARKS AHOSKIE FAIR 70 69 97 S3 30.04S CLINTON FAIR 73 72 98 CALM 30.04S ELIZABETHTOWN CLOUDY 72 71 95 E5 30.03S GOLDSBORO MOCLDY 73 69 87 SE3 30.03S GREENVILLE FAIR 73 72 94 S5 30.06S HAVELOCK CLEAR 76 74 93 SE3 30.05F KENANSVILLE CLOUDY 70 70 100 CALM 30.05R KINSTON FAIR 75 71 89 CALM 30.05S NEW BERN FAIR 72 71 97 CALM 30.06S RICHLANDS FAIR 75 73 93 E3 30.04S ROCKY MOUNT FAIR 72 69 90 S3 30.04S WASHINGTON FAIR 74 72 93 S3 30.05F WHITEVILLE FAIR 72 70 93 NE3 30.01F $$ AMZ130-135-150-152-154-156-158-170-250-252-270-ANZ085-086-088-633-658-670-280600- MARINE OBSERVATIONS STATION/POSITION TIME TEMP WIND PRES WAVE SWELL AIR SEA DIR/SP/G HT/PER HT/PER (UTC) (F) (DEG/KT/KT) (MB) (FT/S) (FT/S) CHESAPEAKE LIGHT NOT AVBL 64 E VA BEACH 0450 74 73 220/ 14/ 16 1017.8 3/ 5 2/ 7 DUCK 0436 77 55 220/ 11/ 14 1017.2 2 E DUCK 0500 59 N/A 1/ 5 OREGON INLET 0436 78 81 190/ 14/ 17 1017.8 13E OREGON INLT 0448 71 N/A 3/ 5 2/ 8 HATTERAS CG 0436 76 78 200/ 2/ 4 1017.9 DIAMOND BUOY 0500 78 78 190/ 14/ 16 1018.4 CAPE LOOKOUT 0500 130/ 6/ 7 1017.8 BEAUFORT LAB 0436 78 79 180/ 6/ 9 1017.9 30 SE NEW RVR IN 0408 78 77 160/ 10/ 12 1017.3 30 SE NEW RVR IN 0500 77 N/A 4/ 7 27 SE WRIGHTSVLE 0408 78 77 160/ 10/ 16 1016.7 5 SE WRIGHTSVLE 0408 75 76 140/ 12/ 17 1016.0 225 S CAPE HAT 0450 78 150/ 16/ 19 1017.5 6/ 7 3/ 8 41 SE CHARLESTON 0450 76 140/ 17/ 21 1013.6 8/ 9 5/ 9 $$

USA.gov is the U.S. government's official web portal to all federal, state and local government web resources and services.